Flag for Germany Weather past 2 weeks in Sonneberg, Thuringia, Germany

34 °F

Low clouds.

Feels Like: 28 °F
Forecast: 25 / 32 °F
Wind: 7 mph from Northwest

Location: Hof Airport

Current Time: Nov 26, 2015 at 10:23:59 AM

Latest Report: Nov 26, 2015 at 9:50 AM

Visibility: 4 mi

Pressure: 29.86 "Hg

Humidity: 93%

Dew point: 32 °F

Location of SonnebergLocation

Historic Weather in Sonneberg — Graph


Sonneberg temperature yesterday

Maximum temperature yesterday: 34 °F (at 2:50 PM)
Minimum temperature yesterday: 30 °F (at 8:50 AM)
Average temperature yesterday: 32 °F

Past Weeks' High & Low Weather Summary

High52 °F (Nov 11, 8:20 AM)94% (Nov 11, 8:50 AM)30.33 "Hg (Nov 11, 8:50 AM)
Low27 °F (Nov 23, 8:20 AM)54% (Nov 16, 12:20 PM)29.36 "Hg (Nov 21, 11:50 AM)
Average42 °F82%29.93 "Hg
* Reported Nov 11 8:20 AM — Nov 26 8:50 AM, Sonneberg, Weather by CustomWeather, © 2015

Note: Actual official high and low records may vary slightly from our data, if they occured in-between our weather recording intervals... More about our weather records


Sonneberg weather history for previous 24 hours

Time TempWeatherWind HumidityBarometerVisibility
8:50 AM
Thu, Nov 26
34 °FLow clouds.2 mph87%29.83 "Hg4 mi
8:20 AM34 °FLow clouds.No wind87%29.83 "Hg4 mi
7:50 AM34 °FFog.3 mph87%29.80 "Hg3 mi
7:20 AM34 °FFog.3 mph87%29.80 "Hg3 mi
6:20 PM
Wed, Nov 25
32 °FLight snow. Passing clouds.8 mph93%29.65 "Hg5 mi
5:50 PM32 °FLight snow. Low clouds.8 mph93%29.65 "HgN/A
5:20 PM32 °FLight snow. Mostly cloudy.8 mph93%29.65 "Hg2 mi
4:50 PM32 °FLight snow. Low clouds.8 mph93%29.65 "HgN/A
4:20 PM32 °FLight snow. Low clouds.9 mph93%29.65 "HgN/A
3:50 PM32 °FLight snow. Low clouds.12 mph93%29.65 "HgN/A
3:20 PM34 °FMostly cloudy.7 mph87%29.65 "HgN/A
2:50 PM34 °FLight snow. Mostly cloudy.10 mph87%29.65 "Hg4 mi
2:20 PM32 °FLight snow. Mostly cloudy.14 mph93%29.65 "Hg4 mi
1:50 PM32 °FLow clouds.14 mph93%29.65 "Hg4 mi
1:20 PM32 °FIce fog.13 mph93%29.65 "Hg3 mi
12:50 PM32 °FMore clouds than sun.12 mph93%29.68 "Hg4 mi
12:20 PM32 °FIce fog.13 mph87%29.68 "Hg3 mi
11:50 AM32 °FIce fog.10 mph93%29.68 "Hg2 mi
11:20 AM32 °FIce fog.13 mph87%29.68 "Hg2 mi
10:50 AM32 °FIce fog.10 mph87%29.71 "Hg3 mi
10:20 AM30 °FIce fog.13 mph93%29.71 "Hg2 mi
Weather by CustomWeather, © 2015

See weather overviewHow to use our weather pages